Location: Heidgraben
(53.7081°N, 9.6576°E)
Time: 04:24:22
(UTC+00:00)

USA 267 - Pass Details

Date: 05 July 2020
Orbit: 1102 x 1106 km, 123.0° (Epoch: 03 August)

Event Time Altitude Azimuth Distance (km) Brightness Sun altitude
Exits shadow 21:33:58 10° 135° (SE) 2,950 4.9 -9.9°
Maximum altitude 21:40:24 60° 215° (SW) 1,245 3.4 -10.3°
Drops below altitude 10° 21:46:53 10° 295° (WNW) 2,969 6.3 -10.7°
Sets 21:49:25 0° 299° (WNW) 3,929 7.1 -10.8°
